Content
SEND FEEDBACK

Daily
Averages
Monthly
Summary
France

LE HAVRE, FRANCE


Home > Europe > France
Elevation: 338 feet     Latitude: 49 31N     Longitude: 000 04E

WEATHER
 
SELECT A DAY
Number of Records: 176,174;   Date Range: 3/4/97 - 7/30/14
 
SHARE

PRINT THIS DATA

[ ← Previous Day ]
WEATHER ALMANAC - MAY 6, 2013
[ Next Day → ]
[ °C ]   °F
Weather ElementAverageHighLow
Temperature53 °F62.6 °F (5:00 pm)41 °F (6:30 am)
Dewpoint45.1 °F50 °F (9:00 am)39.2 °F (7:00 pm)
Humidity76.6 %100 % (6:00 am)42 % (7:00 pm)
Barometer30.14 in30.21 in (12:30 am)30.06 in (7:00 pm)
Wind Speed4 mph10.4 mph (3:30 pm)
Weather ElementAverage
Visibility4.9 mi
Wind DirectionSSE (146.4 °)

Weather ElementTotal
Precipitation---
Heating Degree Days13.2 (Base 65)
Growing Degree Days1.8 (Base 50)
Averaged from 47 records on May 6, 2013
WEATHER CONDITIONS BREAKOUT
WIND DIRECTION BREAKOUT
WEATHER BY HOUR - MAY 6, 2013
[ °C ]   °F
Local TimeTemperatureDewpointHumidityBarometerVisibilityWind DirectionWind SpeedGust SpeedPrecipitationEventsConditions
12:30 AM46.4 °F42.8 °F87 %30.21 in6.2 miCalm
1:00 AM44.6 °F42.8 °F93 %30.21 in6.2 miCalm
1:30 AM46.4 °F44.6 °F93 %30.21 in6.2 miCalm
2:00 AM44.6 °F42.8 °F93 %30.18 in6.2 miCalm
2:30 AM44.6 °F42.8 °F93 %30.18 in5.0 miCalm
3:00 AM44.6 °F42.8 °F93 %30.18 in6.2 miEast (100°)2.3 mph
3:30 AM44.6 °F42.8 °F93 %30.18 in3.1 miEast (100°)1.2 mphMist
4:00 AM42.8 °F41.0 °F93 %30.18 in3.7 miCalm
4:30 AM42.8 °F41.0 °F93 %30.18 inESE (110°)1.2 mphMist
5:00 AM42.8 °F41.0 °F93 %30.15 in0.6 miCalmFogFog
5:30 AM42.8 °F41.0 °F93 %30.15 in1.2 miCalmFogPatches of Fog
6:00 AM42.8 °F42.8 °F100 %30.15 in0.1 miCalmFogFog
6:30 AM41.0 °F41.0 °F100 %30.15 in0.5 miCalmFogFog
7:00 AM42.8 °F42.8 °F100 %30.15 inEast (100°)2.3 mphMist
7:30 AM42.8 °F41.0 °F93 %30.15 in1.7 miCalmMist
8:00 AM46.4 °F46.4 °F100 %30.18 in2.8 miVariable1.2 mphMist
8:30 AM48.2 °F48.2 °F100 %30.18 in0.7 miNorth (350°)2.3 mphMostly Cloudy
9:00 AM51.8 °F50.0 °F94 %30.18 in1.0 miCalmFogPatches of Fog
9:30 AM53.6 °F48.2 °F82 %30.15 in3.7 miCalmPartly Cloudy
10:00 AM57.2 °F46.4 °F67 %30.18 in6.2 miVariable3.5 mph
10:30 AM57.2 °F46.4 °F67 %30.15 in6.2 miVariable3.5 mph
11:00 AM59.0 °F46.4 °F63 %30.15 in6.2 miNE (40°)3.5 mph
11:30 AM55.4 °F50.0 °F82 %30.15 inWNW (290°)8.1 mphMist
12:00 PM55.4 °F50.0 °F82 %30.15 in4.3 miWNW (300°)6.9 mph
12:30 PM57.2 °F50.0 °F77 %30.15 in6.2 miNW (320°)5.8 mph
1:00 PM57.2 °F50.0 °F77 %30.15 in6.2 miNNW (330°)8.1 mph
1:30 PM59.0 °F48.2 °F67 %30.15 in6.2 miNW (320°)4.6 mph
2:00 PM59.0 °F48.2 °F67 %30.15 in6.2 miNW (320°)8.1 mph
2:30 PM59.0 °F46.4 °F63 %30.15 in6.2 miNNW (340°)6.9 mph
3:00 PM60.8 °F46.4 °F59 %30.12 in6.2 miNNW (340°)8.1 mph
3:30 PM60.8 °F48.2 °F63 %30.12 in6.2 miNNW (340°)10.4 mph
4:00 PM60.8 °F46.4 °F59 %30.12 in5.6 miNNW (340°)9.2 mph
4:30 PM60.8 °F48.2 °F63 %30.12 in4.3 miNorth (350°)8.1 mph
5:00 PM62.6 °F44.6 °F52 %30.09 in5.6 miNNW (330°)4.6 mph
5:30 PM60.8 °F44.6 °F55 %30.09 in6.2 miNNW (330°)6.9 mph
6:00 PM60.8 °F44.6 °F55 %30.09 in5.6 miNNW (330°)8.1 mph
6:30 PM62.6 °F42.8 °F48 %30.09 in6.2 miNorth (350°)5.8 mph
7:00 PM62.6 °F39.2 °F42 %30.06 in6.2 miNNW (340°)5.8 mph
7:30 PM60.8 °F42.8 °F52 %30.06 in6.2 miNorth (360°)5.8 mph
8:00 PM60.8 °F42.8 °F52 %30.06 in6.2 miNNE (20°)5.8 mph
8:30 PM59.0 °F46.4 °F63 %30.06 in6.2 miNE (40°)5.8 mph
9:00 PM57.2 °F46.4 °F67 %30.06 in6.2 miNNE (30°)4.6 mph
9:30 PM55.4 °F46.4 °F72 %30.09 in6.2 miNE (40°)3.5 mph
10:00 PM53.6 °F46.4 °F77 %30.09 in6.2 miENE (70°)6.9 mph
10:30 PM53.6 °F46.4 °F77 %30.09 in6.2 miENE (70°)6.9 mph
11:00 PM53.6 °F44.6 °F72 %30.06 in6.2 miEast (80°)5.8 mph
11:30 PM53.6 °F44.6 °F72 %30.06 in6.2 miEast (100°)4.6 mph
Hourly data recorded from LFOH, located miles away from Le Havre, France







STORIES FROM OUR PARTNERS